Location: Burkes Observatory
(44.7598°N, 69.4315°W)
Time: 17:06:18
(UTC-04:00)

Daily predictions for brighter satellites

Satellite Brightness Start Highest point End
(mag) Time Altitude Azimuth Time Altitude Azimuth Time Altitude Azimuth
Cosmos 1354 Rocket 4.5 20:00:40 10° N 20:05:46 45° ENE 20:10:47 10° SE
Helios 1A 3.4 20:02:02 10° SE 20:06:07 48° ENE 20:10:14 10° N
USA 267 3.6 19:59:37 10° NE 20:06:10 75° NW 20:12:41 10° WSW
Cosmos 1697 Rocket 3.4 20:01:21 10° SW 20:06:56 62° WNW 20:12:34 10° NNE
Spot 2 Rocket 3.8 20:07:05 10° S 20:12:11 75° WSW 20:17:18 10° NNW
Milstar 3 4.3 20:07:40 10° WSW 20:13:56 23° S 20:19:03 10° SE
Cosmos 1869 3.5 20:11:22 10° SSE 20:15:10 49° E 20:19:00 10° NNE
Resurs 01 Rocket 2.3 20:12:20 10° S 20:16:43 59° W 20:21:09 10° NNW
Cosmos 1892 3.8 20:15:07 10° NNW 20:18:46 46° W 20:22:24 10° SSW
Cosmos 1400 Rocket 4.3 20:17:22 10° NNW 20:21:00 38° W 20:24:39 10° SSW
Cosmos 2263 Rocket 2.8 20:16:35 10° NNW 20:21:49 39° NE 20:26:42 12° ESE
GRACE-1 4.3 20:20:22 10° N 20:23:06 65° W 20:25:48 10° S
GRACE-2 4.2 20:20:45 10° N 20:23:30 65° W 20:26:12 10° S
Cosmos 2142 Rocket 4.5 20:18:51 10° S 20:24:52 64° E 20:30:58 10° NNE
CZ-4B DEB 2.9 20:22:17 10° SSE 20:25:14 50° ENE 20:28:12 10° N
YAOGAN 6 3.8 20:22:29 11° SE 20:25:21 27° ENE 20:28:26 10° NNE
Meteor 1-29 3.3 20:23:27 10° NNE 20:26:48 42° E 20:30:06 10° S
SPOT 5 4.4 20:24:56 11° ESE 20:28:06 19° ENE 20:31:20 10° NNE
Cosmos 2322 Rocket 2.4 20:23:21 10° S 20:28:39 46° ESE 20:34:01 10° NE
Envisat 3.0 20:27:01 10° SSE 20:32:05 74° ENE 20:37:10 10° N
Cosmos 220 Rocket 4.0 20:27:39 10° NNW 20:32:08 80° ENE 20:36:35 10° SSE
Cosmos 1302 Rocket 4.2 20:27:55 10° SSW 20:33:07 76° WNW 20:38:20 10° NNE
Cosmos 1315 Rocket 3.7 20:30:39 10° NNW 20:34:39 52° W 20:38:34 10° S
Cosmos 2360 Rocket 3.3 20:35:06 10° SSE 20:39:22 23° E 20:43:40 10° NE
Cosmos 1933 4.0 20:35:52 10° SSE 20:39:32 34° E 20:43:13 10° NNE
Cosmos 1980 Rocket 3.0 20:34:21 10° SW 20:39:56 57° WNW 20:45:34 10° NNE
USA 234 3.4 20:35:33 12° SE 20:41:41 78° SW 20:48:15 10° NW
Cosmos 2026 Rocket 4.0 20:35:46 10° N 20:42:03 82° E 20:48:13 10° S
Intercosmos 25 Rocket 3.0 20:44:40 10° S 20:47:50 76° E 20:51:53 10° NNE
Cosmos 1825 2.2 20:44:39 10° N 20:48:29 85° W 20:52:17 10° S
Cosmos 1908 Rocket 4.5 20:45:39 10° N 20:49:31 31° ENE 20:51:38 20° ESE
SL-16 R/B 2.1 20:50:37 10° SSW 20:56:16 75° ESE 21:01:57 10° NNE
Cosmos 1862 3.3 20:57:19 10° N 21:01:22 89° W 21:04:33 16° S
Cosmos 397 4.5 20:57:14 10° NW 21:01:37 80° WSW 21:04:05 23° SSE
ATLAS 5 CENTAUR R/B 2.7 20:56:13 10° NNW 21:02:02 57° NE 21:06:11 22° ESE
Helios 1B rocket 3.1 20:59:02 10° N 21:03:04 56° WNW 21:07:04 10° SSW
MetOp-B 4.4 21:00:48 21° SE 21:04:13 51° ENE 21:09:24 10° N
Lacrosse 4 Rocket 2.0 21:01:26 10° NW 21:05:40 56° WSW 21:08:47 18° S
ERS-1 Rocket 2.9 21:02:09 18° SSE 21:05:57 75° ENE 21:10:58 10° N
USA 186 4.4 21:05:12 10° SW 21:06:51 15° W 21:08:34 10° NW
Cosmos 1655 Rocket 4.2 21:02:24 10° N 21:08:49 79° W 21:15:10 10° S
Cosmos 1733 Rocket 3.3 21:05:58 10° NNW 21:10:25 71° W 21:14:14 14° S
ERBS 4.1 21:08:07 10° WNW 21:11:00 25° SW 21:12:44 17° S
Cosmos 1939 Rocket 3.8 21:08:30 10° S 21:12:26 48° W 21:16:20 10° NNW
ARGOS 3.5 21:11:28 25° SE 21:14:16 48° ENE 21:19:26 10° N
Cosmos 2278 Rocket 4.3 21:12:02 10° N 21:14:57 14° NE 21:17:51 10° ENE
CENTAUR R/B 4.5 21:09:50 10° W 21:15:29 32° NNW 21:21:51 10° NNE
Cosmos 1862 Rocket 3.7 21:14:04 10° SSW 21:18:31 78° W 21:23:02 10° N
SeaSat 1 2.7 21:17:14 29° SE 21:19:39 58° ENE 21:24:31 10° NNW
Meteor 1-26 Rocket 4.4 21:16:14 19° SSE 21:20:17 55° E 21:25:56 10° NNE
Cosmos 1408 4.5 21:20:36 10° NNW 21:23:49 28° W 21:27:00 10° SSW
USA 229 DEB 4.1 21:17:41 10° S 21:23:52 38° ESE 21:30:09 10° NE
USA 229 4.1 21:17:48 10° S 21:23:58 38° ESE 21:30:14 10° NE
Cosmos 1844 Rocket 3.8 21:20:14 10° N 21:25:07 30° NE 21:27:24 23° E
Cosmos 1992 Rocket 4.1 21:20:31 10° SSW 21:25:45 79° WNW 21:31:02 10° NNE
Cosmos 2266 Rocket 4.0 21:23:49 10° N 21:30:05 69° E 21:33:36 28° SSE
Atlas Centaur 2 3.9 21:24:47 10° SW 21:30:40 25° SSE 21:31:32 24° SSE
Okean 1-7 3.6 21:31:06 36° ESE 21:31:25 37° E 21:35:29 10° NNE
Terra 3.2 21:31:11 22° E 21:32:07 24° ENE 21:35:55 10° NNE
SL-08 RB Rocket 3.9 21:31:41 39° SE 21:33:04 54° ENE 21:37:31 10° N
Abrixas rocket 3.0 21:31:26 10° W 21:34:38 48° N 21:35:56 29° NE
MOS 1-B Rocket 3.9 21:32:22 30° SE 21:35:22 68° ENE 21:40:58 10° N
YAOGAN 11 4.1 21:36:20 36° S 21:38:05 83° WSW 21:42:28 10° NNW
Cosmos 1703 Rocket 3.5 21:37:03 41° SSE 21:38:29 67° E 21:42:54 10° NNE
CZ-4C R/B 4.1 21:36:07 10° NNW 21:42:00 30° NNE 21:46:59 15° E
Cosmos 2221 Rocket 3.6 21:44:07 52° SE 21:44:44 58° E 21:49:06 10° NNE
Cosmos 2219 Rocket 3.8 21:46:58 17° ENE 21:46:58 17° ENE 21:49:11 10° NE
MetOp-A 4.4 21:47:17 27° S 21:50:09 64° WSW 21:55:29 10° NNW
Cosmos 1867 3.5 21:44:50 10° NW 21:50:20 83° WSW 21:52:05 45° SSE
Meteor 1-14 Rocket 4.2 21:47:38 10° NNW 21:53:18 83° W 21:55:46 36° S
H-2A R/B 2.0 21:52:50 49° SE 21:54:01 65° ENE 21:58:55 10° N
CARTOSAT-1 4.4 21:55:26 35° ENE 21:55:29 35° ENE 21:59:26 10° N
Cosmos 2237 4.2 22:00:10 44° SSE 22:01:48 61° ESE 22:07:27 10° NNE
ASTEX 1 3.9 22:03:59 41° E 22:04:13 42° ENE 22:08:55 10° N
Cosmos 968 Rocket 3.9 22:00:03 10° NNW 22:05:08 55° WSW 22:06:50 38° SSW
Cosmos 2263 Rocket 3.4 22:00:42 10° NW 22:05:38 33° WSW 22:08:25 21° SSW
SPOT 5 3.3 22:04:10 37° SSW 22:05:49 56° WSW 22:10:26 10° NNW
Nadezhda 2 Rocket 4.5 22:01:35 10° N 22:08:04 82° E 22:10:16 45° SSE
Meteor 1-25 Rocket 4.1 22:03:35 10° NNW 22:09:13 83° W 22:10:47 49° S
COSMOS 2428 2.7 22:10:11 54° SE 22:10:35 55° ESE 22:16:09 10° NNE
Geosat 4.3 22:06:07 10° NE 22:10:19 46° E 22:10:19 46° E
Cosmos 2322 Rocket 4.0 22:07:58 10° WSW 22:12:53 30° NW 22:17:51 10° N
Cosmos 2360 Rocket 2.7 22:17:21 10° SW 22:22:55 58° WNW 22:28:31 10° NNE
H-2A R/B 2.1 22:23:59 75° NNE 22:23:59 75° NNE 22:28:00 10° NNW
Cosmos 1844 3.7 22:22:01 10° NNW 22:27:42 66° ENE 22:28:20 61° E
Meteor 1-20 Rocket 4.4 22:23:22 10° NNW 22:28:51 65° W 22:30:09 50° SSW
Cosmos 2322 4.2 22:25:27 12° SW 22:30:47 58° WNW 22:36:26 10° NNE
S3M 4.1 22:32:12 53° ESE 22:32:29 54° E 22:38:30 10° NNE
Cosmos 1606 3.9 22:38:58 39° N 22:38:58 39° N 22:41:26 10° N
Meteor 2-6 Rocket 4.2 22:39:59 67° S 22:40:51 88° E 22:46:51 10° N
IGS 5A 4.0 22:42:18 57° NNW 22:42:18 57° NNW 22:45:40 10° NNW
SPOT 1/Viking Rocket 4.5 22:40:22 35° SW 22:41:30 40° W 22:46:25 10° NNW
Okean 2 Rocket 4.2 22:40:31 10° NNW 22:44:43 38° W 22:44:59 38° W
ATLAS 5 CENTAUR R/B 3.5 22:41:18 10° NW 22:46:36 32° WSW 22:47:45 30° SW
Cosmos 1633 4.2 22:44:49 10° N 22:46:59 34° NNW 22:46:59 34° NNW
Cosmos 1300 Rocket 4.4 22:45:18 10° N 22:48:26 43° NNE 22:48:26 43° NNE
Cosmos 2333 Rocket 2.7 22:52:12 46° ENE 22:52:12 46° ENE 22:56:38 10° NE
Cosmos 2333 4.2 22:51:48 66° SW 22:52:36 80° WNW 22:58:25 10° NNE
Cosmos 1782 4.0 22:53:34 40° NW 22:53:34 40° NW 22:56:50 10° N
SeaSat 1 4.2 22:57:02 21° WSW 22:57:29 21° WSW 23:01:12 10° WNW
Cosmos 2237 Rocket 3.2 22:59:46 35° ENE 22:59:46 35° ENE 23:03:27 10° NE
Cosmos 2278 Rocket 2.3 22:54:31 10° NNW 23:00:07 67° ENE 23:00:07 67° ENE
Cosmos 1898 Rocket 4.0 22:55:12 10° NNW 22:59:48 49° NE 22:59:48 49° NE
Cosmos 1745 Rocket 3.8 22:58:42 10° N 23:05:04 89° W 23:05:30 79° S
Cosmos 1844 Rocket 3.3 23:03:53 10° NW 23:09:04 46° WSW 23:09:04 46° WSW
Terra 2.8 23:10:04 41° W 23:10:04 41° W 23:14:10 10° NNW
NOSS 3-1 (C) 3.3 23:11:30 73° ENE 23:11:30 73° ENE 23:17:32 10° NE
Spot 4 4.3 23:13:09 57° NW 23:13:09 57° NW 23:17:04 10° NNW
Meteor 1-5 Rocket 4.4 23:06:51 10° N 23:12:00 63° NE 23:12:00 63° NE
Meteor 1-27 Rocket 3.7 23:12:59 77° WNW 23:12:59 77° WNW 23:18:34 10° N
USA 229 DEB 4.4 23:07:59 10° WSW 23:14:39 52° NW 23:21:29 10° NNE
USA 229 4.4 23:08:04 10° WSW 23:14:44 53° NW 23:21:34 10° NNE
Meteor 2-11 Rocket 4.3 23:16:05 89° WSW 23:16:07 89° WNW 23:22:16 10° N
CZ-2C R/B 4.2 23:14:19 10° NE 23:17:20 24° ENE 23:17:20 24° ENE
CZ-4 R/B 4.5 23:17:08 10° N 23:21:20 52° NW 23:21:20 52° NW
Iridium 4 Rocket 4.4 23:18:46 10° NNW 23:21:27 36° NNW 23:21:27 36° NNW
NOSS 3-1 (A) 3.6 23:26:28 61° ENE 23:26:28 61° ENE 23:31:56 10° NE
ATLAS 2AS CENTAUR R/B 4.3 23:29:17 23° E 23:29:17 23° E 23:33:41 10° ENE
Cosmos 2219 Rocket 2.4 23:28:38 63° WNW 23:28:38 63° WNW 23:34:14 10° NNE
CZ-4C R/B 2.7 23:24:18 10° NW 23:31:26 90° ENE 23:32:09 76° SE
Meteor 1-11 Rocket 4.4 23:28:11 10° NNW 23:33:08 45° W 23:33:08 45° W
H-2A R/B 4.1 23:33:27 16° W 23:33:52 16° W 23:36:53 10° NW
Cosmos 2315 Rocket 4.1 23:46:15 69° NE 23:46:15 69° NE 23:51:51 10° N
Cosmos 2297 4.0 23:45:46 10° NNW 23:50:39 63° N 23:50:39 63° N
